Location: Poughquag
(41.6090°N, 73.6820°W)
Time: 19:43:24
(UTC-05:00)

A-11 Canister half - Pass Details

Date: 14 December 2023
Orbit: 1526 x 1682 km, 47.3° (Epoch: 23 February)

Event Time Altitude Azimuth Distance (km) Brightness Sun altitude
Rises 19:53:57 0° 283° (WNW) 4,932 12.6 -38.1°
Reaches altitude 10° 19:57:11 10° 287° (WNW) 3,946 11.8 -38.7°
Enters shadow 20:06:13 63° 338° (NNW) 1,841 9.3 -40.4°
